www.pogodaiklimat.ru

Погода и климат >> Архив погоды >> Соломоновы Острова >> Манда


ПОГОДА в Манде

  • Прогноз погоды в Манде
  • Монитор погоды в Манде

АРХИВ ПОГОДЫ в Манде

Время (UTC), дата Ветер
(напр.,м/с)
 
Видим.   Явления Облачность Т
(С)
Тd
(С)
f
(%)
Тe
(С)
Тes
(С)
Комфортность P
(гПа)
Po
(гПа)
Тmin
(С)
Tmax
(С)
R
(мм)
R24
(мм)
S
(см)
06 11.07 Ю 4 10 км осадки на расстоянии {ливн. осадки} 10/6 500 м
[Cu Sc Ac As]
+26.3 +23.7 86 +36 +36 очень
душно
1010.0 1009.3 2
09 11.07 Ю 4 10 км осадки на расстоянии {ливн. осадки} 9/5 500 м
[Cu Sc Ac As]
+26.3 +24.3 89 +37 +37 очень
душно
1011.9 1011.2 0.3
12 11.07 ЮВ 3 10 км слаб. морось 10/5 480 м
[Cu Sc Ac As]
+25.4 +24.5 95 +36 +36 очень
душно
1012.0 1011.3 3
03 12.07 ЮЗ 2 20 км мгла 9/3 540 м
[Cu Sc Ac trans Cs]
+27.5 +24.6 84 +39 +40 очень
душно
1009.9 1009.2
06 12.07 штиль 0 20 км мгла 8/1 540 м
[Cu med, cong Ac trans Cs]
+28.5 +24.6 79 +40 +42 очень
душно
1008.8 1008.1
09 12.07 штиль 0 20 км зарница {ливн. осадки} 8/1 480 м
[Cb cap Cs]
+25.0 +24.1 95 +34 +34 очень
душно
1010.1 1009.4 2
12 12.07 штиль 0 20 км мгла 9/1 480 м
[Cu med, cong Ac trans Cs]
+26.0 +24.6 92 +37 +37 очень
душно
1010.8 1010.1 2
15 12.07 штиль 0 20 км мгла 4/1 480 м
[Cu med, cong Cs]
+26.4 +24.5 89 +37 +37 очень
душно
1008.9 1008.2
21 12.07 штиль 0 20 км мгла 3/1 500 м
[Cu med, cong Ci sp]
+26.8 +25.9 95 +40 +42 очень
душно
1009.6 1008.9 13
00 13.07 В 4 20 км мгла 3/1 540 м
[Cu med, cong Ci sp]
+29.4 +25.8 81 +44 +52 опасность
перегрева
1010.0 1009.3 +23.8 5
03 13.07 В 4 20 км мгла 6/3 540 м
[Cu med, cong Ac trans Ci]
+30.7 +24.8 71 +44 +48 опасность
перегрева
1008.1 1007.4
06 13.07 В 3 20 км мгла 8/1 540 м
[Cu med, cong Ac trans Cs]
+30.0 +25.0 75 +43 +44 опасность
перегрева
1007.6 1006.9
09 13.07 штиль 0 20 км мгла 6/1 500 м
[Cb cap Ac trans Ci ing]
+27.0 +24.7 87 +38 +38 очень
душно
1009.2 1008.5
12 13.07 штиль 0 20 км мгла 8/1 500 м
[Cu med, cong Ac trans Cs]
+26.1 +24.6 91 +37 +37 очень
душно
1010.5 1009.8
21 13.07 В 2 10 км слаб. морось {дождь} 10/4 450 м
[Cb cap As op]
+24.1 +23.6 97 +33 +33 очень
душно
1010.5 1009.8 6
00 14.07 СВ 2 20 км мгла 9/3 500 м
[Cb cap Ac trans Cs]
+26.2 +24.0 88 +36 +42 очень
душно
1010.9 1010.2 +24.1 0.2 6
03 14.07 штиль 0 20 км мгла 9/4 500 м
[Cb cap Ac As]
+28.2 +24.3 79 +39 +42 очень
душно
1008.9 1008.2
06 14.07 В 2 10 км слаб. дождь 10/5 480 м
[Cu Sc As op]
+25.2 +24.1 94 +35 +35 очень
душно
1008.6 1007.9 2
09 14.07 штиль 0 10 км осадки на расстоянии 10/5 480 м
[Cu Sc As op]
+25.0 +24.3 96 +35 +35 очень
душно
1009.4 1008.7 2
12 14.07 В 4 20 км осадки на расстоянии {ливн. осадки} 10/4 480 м
[Cu Sc As op]
+25.2 +22.9 87 +33 +33 очень
душно
1009.2 1008.5 0.2
15 14.07 штиль 0 20 км мгла 9/1 480 м
[Cu med, cong Ac trans Cs]
+24.7 +23.3 92 +33 +33 очень
душно
1008.8 1008.1
21 14.07 штиль 0 20 км мгла 8/1 480 м
[Cu med, cong Cs]
+23.5 +23.1 98 +31 +32 очень
душно
1010.2 1009.5
00 15.07 штиль 0 20 км 9/1 540 м
[Cu med, cong Ac trans Cs]
+27.8 +24.0 80 +39 +48 очень
душно
1010.8 1010.1 +23.2 4
03 15.07 СВ 2 20 км мгла 9/1 540 м
[Cu med, cong Ac trans Cs]
+28.4 +23.7 76 +39 +41 очень
душно
1008.8 1008.1
06 15.07 штиль 0 20 км мгла 8/1 540 м
[Cu med, cong Ac trans Cs]
+28.9 +23.2 71 +39 +40 очень
душно
1008.1 1007.4
09 15.07 штиль 0 20 км мгла 6/1 500 м
[Cu med, cong Ac trans Cs]
+26.4 +24.2 88 +37 +37 очень
душно
1009.9 1009.2
12 15.07 штиль 0 20 км мгла 6/1 500 м
[Cu med, cong Ac trans]
+26.3 +24.8 91 +37 +37 очень
душно
1010.8 1010.1
21 15.07 штиль 0 20 км мгла 5/1 480 м
[Cu med, cong Ac trans Ci sp]
+24.8 +23.5 92 +33 +35 очень
душно
1010.7 1010.0
00 16.07 штиль 0 20 км мгла 3/1 540 м
[Cu med, cong Ac trans Ci fib]
+28.8 +23.8 74 +39 +55 опасность
солнечного
удара
1011.0 1010.3 +23.9
03 16.07 Ю 2 20 км 3/1 540 м
[Cu med, cong Ci sp]
+29.0 +23.2 71 +39 +52 опасность
солнечного
удара
1008.6 1007.9
06 16.07 штиль 0 20 км 4/1 540 м
[Cu Sc Ci sp]
+29.0 +23.2 71 +39 +41 очень
душно
1008.1 1007.4
09 16.07 штиль 0 20 км 3/1 500 м
[Cu med, cong Ci sp]
+27.5 +23.6 79 +37 +37 очень
душно
1010.0 1009.3
12 16.07 штиль 0 20 км мгла 5/5 480 м
[Cu Sc]
+24.9 +23.7 93 +34 +34 очень
душно
1010.8 1010.1
21 16.07 штиль 0 20 км мгла 8/3 480 м
[Cu Sc Ac trans Cs]
+25.0 +24.7 98 +35 +36 очень
душно
1011.1 1010.4
00 17.07 В 2 20 км мгла 9/3 540 м
[Cu Sc Ac trans]
+28.5 +24.3 78 +40 +45 очень
душно
1011.4 1010.7 +23.4
03 17.07 штиль 0 10 км слаб. ливневой дождь 10/6 540 м
[Cb cap Ac As]
+25.8 +24.6 93 +36 +37 очень
душно
1009.7 1009.0 0.3
06 17.07 штиль 0 10 км в посл. час ливневой дождь 9/4 500 м
[Cu Sc Ac As]
+25.7 +24.5 93 +36 +37 очень
душно
1008.3 1007.6 2
09 17.07 штиль 0 10 км мгла 4/1 480 м
[Cu med, cong Ac trans Cs]
+24.8 +23.8 94 +34 +34 очень
душно
1009.5 1008.8
12 17.07 штиль 0 10 км в посл. час ливневой дождь 8/5 480 м
[Cu med, cong Ac trans]
+24.9 +24.3 96 +34 +34 очень
душно
1010.6 1009.9 2
21 17.07 штиль 0 20 км мгла 4/1 500 м
[Cb cap Ac trans Ci fib]
+25.8 +25.1 96 +37 +39 очень
душно
1010.8 1010.1
00 18.07 Ю 2 20 км в посл. час ливневой дождь 4/3 540 м
[Cb cap Ac trans Ci fib]
+28.2 +25.2 84 +41 +51 опасность
перегрева
1011.3 1010.6 +24.9 0.8 5
03 18.07 В 4 20 км мгла 5/4
[Cb cap Ac trans Ci sp]
+29.0 +24.4 76 +41 +46 опасность
перегрева
1009.0 1008.3

 

Местоположение метеостанции Манда (Соломоновы Острова): широта -8.33 долгота 157.26 высота над уровнем моря 6 м.

В архиве по умолчанию представлена погода в Манде за последнюю неделю. Архивные данные за месяц целиком и за предыдущие месяцы, начиная с января 2011 года, Вы можете получить, выбрав интересующий диапазон дат из раскрывающегося списка и нажав кнопку "Ввод!".


*Определитесь, кто Вы:
робот инопланетянин человек

Внимание! Время в таблицах - всемирное. Для получения местного времени необходимо прибавить поправку, которая равна 11 ч.

Смотрите также архив погоды в соседних городах и на ближайших метеорологических станциях:

Погода на Острове Таро (Соломоновы Острова) (204 км)
Погода в Хониаре (Соломоновы Острова) (322 км)
Погода в Хониара аэропорту (Соломоновы Острова) (330 км)
Погода в Ауки (Соломоновы Острова) (385 км)
Погода на Мисиме (Папуа Новая Гвинея) (552 км)
Погода в Токуа (Папуа Новая Гвинея) (701 км)
Погода в Герни (Папуа Новая Гвинея) (792 км)
Погода в Кавиенге (Папуа Новая Гвинея) (959 км)
Погода на Островах Санта-Круз (Соломоновы Острова) (972 км)
Погода на Атолле Капингамаранги (Микронезия) (1083 км)

Пояснения к столбцам:

Ветер - указаны скорость ветра в м/с - средняя за 10 мин, порывы в срок и между сроками (в фигурных скобках) и направление, откуда дует ветер: С - северный, СВ - северо-восточный, В - восточный, ЮВ - юго-восточный, Ю - южный, ЮЗ - юго-западный, З - западный, СЗ - северо-западный.
Видимость - горизонтальная дальность видимости в метрах или километрах. При видимости от 1 до 10 км при отсутствии осадков обычно наблюдается дымка, при ухудшении видимости до 1 км и менее - туман. В сухую погоду видимость может ухудшаться дымом, пылью или мглою.
Явления - указаны атмосферные явления, наблюдавшиеся в срок или в последний час перед сроком; фигурными скобками обозначены явления, наблюдавшиеся между сроками (за 1-3 часа до срока); квадратными скобками обозначены град или гололедные отложения с указанием их диаметра в мм.
Облачность - указаны через наклонную черту общая и нижняя облачность в баллах и высота нижней границы облаков в метрах; квадратными скобками обозначены формы облаков: Ci - перистые, Cs - перисто-слоистые, Cc - перисто-кучевые, Ac - высококучевые, As - высокослоистые, Sc - слоисто-кучевые, Ns - слоисто-дождевые, Cu - кучевые, Cb - кучево-дождевые. Подробнее классификацию облаков см. в Атласе облаков (PDF).
T - Температура воздуха - температура, измеренная на высоте 2 м над землей.
Td - Температура точки росы - температура, при понижении до которой содержащийся в воздухе водяной пар достигнет насыщения.
f - Относительная влажность воздуха - влажноcть воздуха, измеренная на высоте 2 м над землей.
Te - Эффективная температура - температура, которую ощущает одетый по сезону человек в тени. Характеристика душности погоды. При расчете учитывается влияние влажности воздуха и скорости ветра на теплоощущения человека.
Tes - Эффективная температура на солнце - температура, которую ощущает человек, с поправкой на солнечный нагрев. Характеристика знойности погоды. Зависит от высоты солнца над горизонтом, облачности и скорости ветра. Ночью, в пасмурную погоду, а также при ветре 12 м/с и более поправка равна нулю.
P - Атмосферное давление - приведенное к уровню моря атмосферное давление.
Po - Атмосферное давление - измеренное на уровне метеостанции атмосферное давление.
Tmin - Минимальная температура - минимум температуры воздуха на высоте 2 м над землей.
Tmax - Максимальная температура - максимум температуры воздуха на высоте 2 м над землей.
R - Количество осадков - Количество выпавших осадков за период времени, мм. При наведении курсора мыши на число - период времени, за который выпало указанное количество осадков.
R24 - Количество осадков - Количество выпавших осадков за 24 часа, мм.
S - Снежный покров - Высота снежного покрова, см. При наведении курсора мыши на число - состояние снежного покрова и степень покрытия местности в баллах.